Terug naar catalogus

METEOR 2-17 DEB

ActiefPO
NORAD 35368·DEBRIS·🇷🇺 Russia

Gelanceerd Jan 30, 1988 vanaf Plesetsk Cosmodrome

Loading…

Volgende Passages (komende 24 uur)

TLE

VersSource: Space-Track

Epoch: Sep 14, 2026, 11:22 UTC

1 35368U 88005AC  26257.47425481  .00003022  00000-0  16327-2 0  9991
2 35368  82.5560 170.8201 0021322 185.4645 174.6302 14.12244306991318

Volg METEOR 2-17 DEB in realtime met AllMySat

Download on the App Store